W9RPM Weather Reports


time (UTC)temp
C
wind
direction
speed
KPH
gust
KPH
rain 1hr
cm
rain 24hr
cm
rain mn
cm
humidity
%
barometer
mb
20260503050019 12 142 4.8 12.9 0.00 0.00 0.00 51 1012.0
20260503044602 12 123 4.8 16.1 0.00 0.00 0.00 51 1012.0
20260503043030 12 136 3.2 11.3 0.00 0.00 0.00 52 1012.2
20260503041511 12 117 1.6 11.3 0.00 0.00 0.00 53 1012.2
20260503040052 12 149 4.8 14.5 0.00 0.00 0.00 53 1012.5
20260503034538 12 136 3.2 14.5 0.00 0.00 0.00 55 1012.6
20260503033013 12 146 6.4 12.9 0.00 0.00 0.00 58 1012.8
20260503031555 13 153 4.8 11.3 0.00 0.00 0.00 63 1013.0
20260503030035 13 155 3.2 8.0 0.00 0.00 0.00 60 1013.1
20260503024512 13 155 3.2 6.4 0.00 0.00 0.00 54 1013.1
20260503023055 13 150 1.6 6.4 0.00 0.00 0.00 56 1013.1
20260503021540 13 192 0.0 8.0 0.00 0.00 0.00 54 1013.2
20260503020025 13 186 1.6 6.4 0.00 0.00 0.00 47 1013.2
20260503014504 14 203 1.6 6.4 0.00 0.00 0.00 46 1013.2
20260503013043 15 170 1.6 8.0 0.00 0.00 0.00 45 1013.2
20260503011532 15 173 0.0 3.2 0.00 0.00 0.00 44 1013.3
20260503010010 15 198 0.0 4.8 0.00 0.00 0.00 42 1013.3
20260503004550 16 226 1.6 8.0 0.00 0.00 0.00 39 1013.3
20260503003033 16 230 3.2 12.9 0.00 0.00 0.00 37 1013.4
20260503001517 16 212 1.6 11.3 0.00 0.00 0.00 37 1013.5
20260503000053 16 263 1.6 14.5 0.00 0.00 0.00 36 1013.6
20260502234548 17 314 4.8 17.7 0.00 0.00 0.00 35 1013.8
20260502233014 17 285 3.2 20.9 0.00 0.00 0.00 34 1014.0
20260502231559 17 223 4.8 17.7 0.00 0.00 0.00 33 1014.1
20260502230039 17 271 3.2 17.7 0.00 0.00 0.00 34 1014.1
20260502224522 17 245 4.8 17.7 0.00 0.00 0.00 34 1014.3
20260502223056 16 257 6.4 17.7 0.00 0.00 0.00 35 1014.5
20260502223005 16 280 6.4 17.7 0.00 0.00 0.00 34 1014.5
20260502221543 17 266 6.4 20.9 0.00 0.00 0.00 32 1014.7
20260502220032 17 188 8.0 19.3 0.00 0.00 0.00 31 1014.7
20260502214511 17 313 3.2 19.3 0.00 0.00 0.00 32 1015.0
20260502213050 17 252 6.4 22.5 0.00 0.00 0.00 31 1015.1
20260502211530 17 263 12.9 25.7 0.00 0.00 0.00 31 1015.3
20260502210014 17 243 4.8 12.9 0.00 0.00 0.00 35 1015.5
20260502204558 17 257 8.0 19.3 0.00 0.00 0.00 32 1015.7
20260502203035 16 248 9.7 22.5 0.00 0.00 0.00 34 1016.1
20260502201514 16 232 9.7 27.4 0.00 0.00 0.00 33 1016.3
20260502200048 16 249 6.4 25.7 0.00 0.00 0.00 32 1016.6
20260502194538 16 252 6.4 17.7 0.00 0.00 0.00 34 1016.7
20260502193004 16 221 12.9 20.9 0.00 0.00 0.00 33 1016.9
20260502191543 16 257 4.8 19.3 0.00 0.00 0.00 33 1017.1
20260502190020 16 256 11.3 25.7 0.00 0.00 0.00 33 1017.3
20260502184600 15 207 4.8 25.7 0.00 0.00 0.00 32 1017.4
20260502184506 15 213 8.0 25.7 0.00 0.00 0.00 34 1017.5
20260502183058 15 325 11.3 22.5 0.00 0.00 0.00 34 1017.7
20260502181534 15 323 6.4 14.5 0.00 0.00 0.00 37 1017.8